User: anonymous   Login
Location: ActonStarParty
(42.4766°N, 71.4538°W)
Time: 23:07:17
(UTC-04:00)
Language:

Cosmos 1300 - Orbit

View from above orbital plane
View from above orbital plane
View from above satellite
View from above satellite

Ground track
Ground track

The orbit data is extracted from the following two-line orbital elements,

1 12785U 81082A   16181.78242296  .00000399  00000-0  19058-4 0  9997
2 12785  82.5046  61.4968 0002492  63.1633   2.6981 15.16120633898440
Epoch (UTC): 29 June 2016 18:46:41
Eccentricity: 0.0002492
inclination: 82.5046°
perigee height: 516 km
apogee height: 519 km
right ascension of ascending node: 61.4968°
argument of perigee: 63.1633°
revolutions per day: 15.16120633
mean anomaly at epoch: 2.6981°
orbit number at epoch: 89844

The dashed part of the orbit path shows where the satellite is in the earth's shadow,  

DLR